Weather History for Dover AFB, DE

Change the Weather History Date:

Saturday, March 29, 2014

  Actual Average Record
Temperature  
Mean Temperature 54 °F -  
Max Temperature 61 °F 62 °F 85 °F (1989)
Min Temperature 48 °F 40 °F 23 °F (1959)
Degree Days  
Heating Degree Days 10    
Growing Degree Days 4 (Base 50)    
Moisture  
Dew Point 55 °F    
Average Humidity 100    
Maximum Humidity 100    
Minimum Humidity 88    
Precipitation  
Precipitation 1.49 in - - ()
Sea Level Pressure  
Sea Level Pressure 29.88 in    
Wind  
Wind Speed 9 mph (ESE)    
Max Wind Speed 17 mph    
Max Gust Speed 25 mph    
Visibility 4 miles    
Events Fog , Rain    
Averages and records for this station are not official NWS values.
T = Trace of Precipitation, MM = Missing Value Source: NWS Daily Summary

Daily Weather History Graph

Daily Weather History Graph

Search for Another Location

Airport:

Trip Planner

Search our weather history database for the weather conditions in past years. The results will help you decide how hot, cold, wet, or windy it might be!

Date:

Astronomy

Mar. 29, 2014 Rise Set
Actual Time 6:51 AM EDT 7:22 PM EDT
Civil Twilight 6:24 AM EDT 7:49 PM EDT
Nautical Twilight 5:52 AM EDT 8:21 PM EDT
Astronomical Twilight 5:20 AM EDT 8:53 PM EDT
Moon 5:57 AM EDT (3/29) 6:25 PM EDT (3/29)
Length of Visible Light 13h 25m
Length of Day
12h 31m
Waning Crescent, 2% of the Moon is Illuminated
Mar 29
Waning Crescent
Mar 30
New
Apr 7
First Quarter
Apr 15
Full
Apr 22
Last Quarter

Hourly Weather History & Observations

Time (EDT) Temp. Dew Point Humidity Pressure Visibility Wind Dir Wind Speed Gust Speed Precip Events Conditions
12:58 AM 61.5 °F 57.9 °F 88% 30.11 in 10.0 mi SSW 12.7 mph - N/A   Overcast
1:58 AM 60.8 °F 60.4 °F 99% 30.12 in 10.0 mi SSW 12.7 mph - N/A   Overcast
2:05 AM 60.8 °F 60.8 °F 100% 30.11 in 10.0 mi SSW 15.0 mph - N/A Rain Light Rain
2:15 AM 59.0 °F 59.0 °F 100% 30.11 in 10.0 mi SW 13.8 mph - N/A   Mostly Cloudy
2:58 AM 58.1 °F 58.1 °F 100% 30.11 in 10.0 mi SSW 9.2 mph - 0.00 in   Overcast
3:01 AM 57.2 °F 57.2 °F 100% 30.10 in 10.0 mi SSW 8.1 mph - N/A   Light Drizzle
3:48 AM 57.2 °F 57.2 °F 100% 30.09 in 10.0 mi South 5.8 mph - N/A   Overcast
3:57 AM 57.2 °F 57.2 °F 100% 30.08 in 10.0 mi South 4.6 mph - N/A Rain Light Rain
3:58 AM 57.0 °F 57.0 °F 100% 30.09 in 10.0 mi South 4.6 mph - 0.00 in Rain Light Rain
4:58 AM 57.0 °F 57.0 °F 100% 30.10 in 7.0 mi South 5.8 mph - 0.02 in Rain Light Rain
5:58 AM 57.0 °F 57.0 °F 100% 30.09 in 7.0 mi South 5.8 mph - 0.04 in Rain Light Rain
6:18 AM 57.2 °F 57.2 °F 100% 30.08 in 6.0 mi South 5.8 mph - N/A Rain Light Rain
6:48 AM 57.2 °F 57.2 °F 100% 30.09 in 5.0 mi South 4.6 mph - N/A Rain Light Rain
6:53 AM 57.2 °F 57.2 °F 100% 30.09 in 4.0 mi South 3.5 mph - N/A Rain Light Rain
6:58 AM 57.2 °F 57.2 °F 100% 30.10 in 2.5 mi South 3.5 mph - 0.06 in Rain Light Rain
7:03 AM 57.2 °F 57.2 °F 100% 30.09 in 1.2 mi South 2.3 mph - N/A Rain Light Rain
7:08 AM 57.2 °F 57.2 °F 100% 30.09 in 1.0 mi SSE 2.3 mph - N/A Rain Light Rain
7:13 AM 57.2 °F 57.2 °F 100% 30.09 in 1.0 mi South 3.5 mph - N/A Rain Light Rain
7:18 AM 57.2 °F 57.2 °F 100% 30.10 in 0.8 mi SSE 3.5 mph - N/A Rain Light Rain
7:23 AM 55.4 °F 55.4 °F 100% 30.10 in 0.8 mi SE 3.5 mph - N/A Rain Light Rain
7:28 AM 57.2 °F 57.2 °F 100% 30.10 in 1.0 mi SE 3.5 mph - N/A Rain Light Rain
7:33 AM 57.2 °F 57.2 °F 100% 30.10 in 2.0 mi SSE 4.6 mph - N/A Rain Light Rain
7:38 AM 57.2 °F 57.2 °F 100% 30.10 in 2.5 mi SE 5.8 mph - N/A Rain Rain
7:48 AM 57.2 °F 57.2 °F 100% 30.10 in 2.0 mi SE 6.9 mph - N/A Rain Rain
7:58 AM 57.2 °F 57.2 °F 100% 30.11 in 2.0 mi SE 5.8 mph - 0.13 in Rain Rain
8:38 AM 57.2 °F 57.2 °F 100% 30.09 in 2.5 mi ESE 3.5 mph - N/A Rain Rain
8:43 AM 57.2 °F 57.2 °F 100% 30.09 in 3.0 mi ESE 3.5 mph - N/A Rain Rain
8:53 AM 57.2 °F 57.2 °F 100% 30.09 in 4.0 mi East 3.5 mph - N/A Rain Light Rain
8:58 AM 57.6 °F 57.6 °F 100% 30.09 in 4.0 mi East 4.6 mph - 0.19 in Rain Light Rain
9:03 AM 57.2 °F 57.2 °F 100% 30.08 in 3.0 mi East 3.5 mph - N/A Rain Light Rain
9:23 AM 55.4 °F 55.4 °F 100% 30.08 in 5.0 mi East 3.5 mph - N/A Rain Light Rain
9:28 AM 55.4 °F 55.4 °F 100% 30.07 in 5.0 mi East 4.6 mph - N/A Rain Light Rain
9:38 AM 55.4 °F 55.4 °F 100% 30.07 in 3.0 mi East 5.8 mph - N/A Rain Light Rain
9:53 AM 55.4 °F 55.4 °F 100% 30.07 in 3.0 mi East 5.8 mph - N/A Rain Light Rain
9:58 AM 56.1 °F 56.1 °F 100% 30.08 in 2.5 mi East 5.8 mph - 0.10 in Rain Light Rain
10:03 AM 57.2 °F 57.2 °F 100% 30.07 in 1.8 mi East 6.9 mph - N/A Rain Light Rain
10:08 AM 55.4 °F 55.4 °F 100% 30.07 in 1.2 mi East 8.1 mph - N/A Rain Light Rain
10:18 AM 57.2 °F 57.2 °F 100% 30.06 in 1.8 mi East 8.1 mph - N/A Rain Light Rain
10:28 AM 57.2 °F 57.2 °F 100% 30.06 in 1.2 mi East 9.2 mph - N/A Rain Rain
10:33 AM 57.2 °F 57.2 °F 100% 30.06 in 1.5 mi East 9.2 mph - N/A Rain Rain
10:53 AM 57.2 °F 57.2 °F 100% 30.05 in 2.5 mi East 8.1 mph - N/A Rain Light Rain
10:58 AM 56.5 °F 56.5 °F 100% 30.06 in 3.0 mi East 9.2 mph - 0.23 in Rain Light Rain
11:08 AM 55.4 °F 55.4 °F 100% 30.04 in 2.0 mi East 10.4 mph - N/A Rain Light Rain
11:48 AM 53.6 °F 53.6 °F 100% 30.03 in 3.0 mi East 8.1 mph - N/A Rain Light Rain
11:58 AM 51.6 °F 51.6 °F 100% 30.03 in 2.0 mi East 8.1 mph 17.3 mph 0.16 in Rain Light Rain
12:18 PM 50.0 °F 50.0 °F 100% 30.01 in 1.8 mi East 11.5 mph - N/A Rain Light Rain
12:43 PM 48.2 °F 48.2 °F 100% 30.00 in 2.5 mi East 12.7 mph - N/A Rain Light Rain
12:48 PM 48.2 °F 48.2 °F 100% 30.00 in 3.0 mi East 10.4 mph - N/A Rain Light Rain
12:58 PM 48.9 °F 48.9 °F 100% 30.00 in 5.0 mi East 12.7 mph 18.4 mph 0.05 in Rain Light Rain
1:58 PM 48.0 °F 48.0 °F 100% 29.96 in 3.0 mi East 17.3 mph 25.3 mph 0.05 in Rain Light Rain
2:58 PM 48.6 °F 48.6 °F 100% 29.92 in 3.0 mi East 11.5 mph 20.7 mph 0.03 in Rain Light Rain
3:18 PM 48.2 °F 48.2 °F 100% 29.89 in 2.5 mi East 10.4 mph 20.7 mph N/A Rain Light Rain
3:23 PM 48.2 °F 48.2 °F 100% 29.89 in 1.8 mi East 11.5 mph 20.7 mph N/A Rain Light Rain
3:43 PM 48.2 °F 48.2 °F 100% 29.88 in 1.2 mi East 11.5 mph 20.7 mph N/A Rain Light Rain
3:53 PM 48.2 °F 48.2 °F 100% 29.88 in 1.0 mi East 13.8 mph 19.6 mph N/A Rain Light Rain
3:58 PM 48.2 °F 48.2 °F 100% 29.89 in 0.8 mi East 10.4 mph 18.4 mph 0.02 in Rain Light Rain
4:02 PM 48.2 °F 48.2 °F 100% 29.88 in 0.8 mi East 10.4 mph - N/A   Overcast
4:07 PM 48.2 °F 48.2 °F 100% 29.87 in 0.8 mi East 12.7 mph - N/A   Overcast
4:08 PM 48.2 °F 48.2 °F 100% 29.87 in 0.8 mi East 11.5 mph - N/A Rain Light Rain
4:13 PM 50.0 °F 48.2 °F 94% 29.87 in 0.5 mi East 10.4 mph - N/A Fog , Rain Light Rain
4:18 PM 50.0 °F 48.2 °F 94% 29.86 in 0.8 mi East 11.5 mph - N/A Rain Light Rain
4:33 PM 50.0 °F - N/A% 29.84 in 1.0 mi East 10.4 mph 20.7 mph N/A Rain Light Rain
4:38 PM 50.0 °F - N/A% 29.84 in 1.2 mi East 11.5 mph 20.7 mph N/A Rain Light Rain
4:48 PM 48.2 °F - N/A% 29.83 in 1.0 mi East 10.4 mph - N/A   Light Drizzle
4:52 PM 50.0 °F - N/A% 29.83 in 1.2 mi East 9.2 mph 17.3 mph N/A   Overcast
4:58 PM 50.0 °F - N/A% 29.84 in 1.2 mi East 11.5 mph 17.3 mph 0.01 in   Overcast
5:02 PM 48.2 °F - N/A% 29.83 in 0.8 mi East 10.4 mph 18.4 mph N/A Rain Light Rain
5:07 PM 48.2 °F - N/A% 29.83 in 0.8 mi East 11.5 mph 20.7 mph N/A Rain Light Rain
5:14 PM 48.2 °F - N/A% 29.83 in 0.8 mi East 11.5 mph 20.7 mph N/A Rain Light Rain
5:17 PM 48.2 °F - N/A% 29.82 in 0.8 mi East 8.1 mph 17.3 mph N/A Rain Light Rain
5:19 PM 50.0 °F - N/A% 29.82 in 1.0 mi East 10.4 mph 17.3 mph N/A Rain Light Rain
5:24 PM 50.0 °F - N/A% 29.82 in 0.8 mi East 12.7 mph 17.3 mph N/A Rain Light Rain
5:29 PM 48.2 °F - N/A% 29.82 in 0.8 mi East 11.5 mph - N/A Rain Light Rain
5:34 PM 48.2 °F - N/A% 29.81 in 0.8 mi East 9.2 mph - N/A Rain Light Rain
5:39 PM 48.2 °F - N/A% 29.81 in 1.0 mi East 11.5 mph - N/A Rain Light Rain
5:44 PM 48.2 °F - N/A% 29.81 in 1.8 mi East 10.4 mph 18.4 mph N/A Rain Light Rain
5:49 PM 48.2 °F - N/A% 29.80 in 2.0 mi East 11.5 mph 18.4 mph N/A Rain Light Rain
5:58 PM 48.2 °F - N/A% 29.81 in 3.0 mi East 9.2 mph - 0.06 in Rain Rain
6:48 PM 50.0 °F - N/A% 29.76 in 2.5 mi East 12.7 mph 18.4 mph N/A Rain Light Rain
6:53 PM 50.0 °F - N/A% 29.76 in 1.8 mi East 12.7 mph 18.4 mph N/A Rain Light Rain
6:58 PM 50.0 °F - N/A% 29.77 in 1.5 mi East 10.4 mph 19.6 mph 0.09 in Rain Light Rain
7:02 PM 50.0 °F - N/A% 29.76 in 1.5 mi East 11.5 mph 19.6 mph N/A Rain Light Rain
7:08 PM 50.0 °F - N/A% 29.76 in 2.0 mi East 10.4 mph 17.3 mph N/A Rain Light Rain
7:13 PM 50.0 °F - N/A% 29.76 in 3.0 mi East 11.5 mph - N/A Rain Light Rain
7:38 PM 50.0 °F - N/A% 29.73 in 5.0 mi East 9.2 mph - N/A Rain Light Rain
7:53 PM 50.0 °F - N/A% 29.73 in 5.0 mi ESE 11.5 mph - N/A Rain Light Rain
7:58 PM 50.0 °F - N/A% 29.73 in 6.0 mi ESE 10.4 mph - 0.11 in Rain Light Rain
8:28 PM 51.8 °F - N/A% 29.70 in 7.0 mi East 6.9 mph - N/A   Light Drizzle
8:33 PM 51.8 °F - N/A% 29.70 in 9.0 mi East 6.9 mph - N/A   Light Drizzle
8:38 PM 51.8 °F - N/A% 29.70 in 10.0 mi East 8.1 mph - N/A Rain Light Rain
8:43 PM 51.8 °F - N/A% 29.69 in 10.0 mi East 6.9 mph - N/A Rain Light Rain
8:45 PM 51.8 °F - N/A% 29.69 in 10.0 mi East 6.9 mph - N/A   Overcast
8:48 PM 51.8 °F - N/A% 29.69 in 10.0 mi East 5.8 mph - N/A Rain Light Rain
8:53 PM 51.8 °F - N/A% 29.68 in 8.0 mi East 8.1 mph - N/A Rain Light Rain
8:58 PM 51.8 °F - N/A% 29.69 in 6.0 mi East 6.9 mph - 0.02 in Rain Light Rain
9:03 PM 51.8 °F - N/A% 29.67 in 7.0 mi East 8.1 mph - N/A Rain Light Rain
9:04 PM 51.8 °F - N/A% 29.67 in 7.0 mi East 8.1 mph - N/A   Overcast
9:14 PM 51.8 °F - N/A% 29.66 in 4.0 mi East 8.1 mph - N/A   Haze
9:19 PM 51.8 °F - N/A% 29.66 in 2.0 mi East 8.1 mph - N/A   Overcast
9:24 PM 53.6 °F - N/A% 29.65 in 1.8 mi East 8.1 mph - N/A   Overcast
9:28 PM 51.8 °F - N/A% 29.65 in 2.5 mi East 8.1 mph - N/A Rain Light Rain
9:48 PM 53.6 °F - N/A% 29.63 in 3.0 mi East 8.1 mph - N/A Rain Light Rain
9:53 PM 51.8 °F - N/A% 29.62 in 5.0 mi East 8.1 mph - N/A Rain Light Rain
9:58 PM 53.6 °F - N/A% 29.63 in 5.0 mi East 8.1 mph - 0.05 in   Light Drizzle
10:03 PM 53.6 °F - N/A% 29.62 in 4.0 mi East 8.1 mph - N/A   Light Drizzle
10:13 PM 53.6 °F - N/A% 29.62 in 2.5 mi East 8.1 mph - N/A Rain Light Rain
10:23 PM 53.6 °F - N/A% 29.61 in 2.5 mi East 6.9 mph - N/A Rain Light Rain
10:28 PM 53.6 °F - N/A% 29.61 in 3.0 mi East 8.1 mph - N/A   Light Drizzle
10:38 PM 53.6 °F - N/A% 29.60 in 2.5 mi East 8.1 mph - N/A   Light Drizzle
10:48 PM 53.6 °F - N/A% 29.60 in 3.0 mi East 6.9 mph - N/A   Light Drizzle
10:58 PM 55.4 °F - N/A% 29.61 in 3.0 mi East 6.9 mph - 0.06 in   Light Drizzle
11:03 PM 55.4 °F - N/A% 29.60 in 2.5 mi East 6.9 mph - N/A   Light Drizzle
11:08 PM 55.4 °F - N/A% 29.60 in 3.0 mi East 6.9 mph - N/A   Light Drizzle
11:13 PM 55.4 °F - N/A% 29.60 in 3.0 mi East 5.8 mph - N/A   Light Drizzle
11:14 PM 55.4 °F - N/A% 29.60 in 4.0 mi East 5.8 mph - N/A   Haze
11:29 PM 53.6 °F - N/A% 29.59 in 4.0 mi ESE 4.6 mph - N/A   Haze
11:34 PM 59.0 °F - N/A% 29.59 in 5.0 mi SE 4.6 mph - N/A   Haze
11:44 PM 59.0 °F - N/A% 29.58 in 9.0 mi SE 4.6 mph - N/A   Overcast
11:58 PM 60.8 °F - N/A% 29.60 in 10.0 mi NNE 2.3 mph - 0.01 in   Overcast